Theta_e
298 294 293 301 305 308 305 303 301 303 302 299 298 300 302 305 302 304 306 308 311 313 318 323 326 328 329 331 332 333 333 334 334 333 330 328 328 330 331 332 333 332 331 329
292 292 300 305 308 307 305 302 302 303 303 298 302 301 303 303 303 304 305 306 308 312 315 319 323 326 328 329 331 331 331 333 334 334 333 331 328 331 333 335 334 333 332 331
288 298 303 302 303 299 302 300 302 301 296 296 295 295 298 302 303 304 305 306 307 308 312 316 320 323 327 328 330 331 332 333 334 335 334 333 333 333 331 332 332 332 332 331
292 303 298 298 297 301 297 303 301 294 294 292 297 292 302 302 300 301 303 304 305 306 309 313 318 321 324 327 331 331 332 333 334 335 333 330 329 327 330 332 332 333 332 332
290 292 295 294 297 301 298 297 295 294 292 292 291 289 296 302 298 300 302 305 306 307 308 308 312 317 321 326 328 331 331 332 334 335 334 333 329 331 333 332 332 332 333 332
291 295 297 299 300 298 295 293 293 293 292 285 290 289 291 296 296 300 302 304 306 308 309 310 309 311 314 322 328 330 330 330 332 333 334 333 332 331 331 331 330 331 331 331
288 290 295 298 292 294 294 291 285 283 284 283 288 289 292 298 300 301 301 304 306 308 309 310 309 306 309 312 318 325 328 328 330 331 331 332 332 332 331 331 330 330 330 330
286 282 290 295 295 291 291 292 287 280 281 285 284 283 291 298 301 302 302 302 302 301 304 304 306 308 307 307 309 313 318 323 326 329 329 331 331 331 331 331 330 330 330 330
289 287 293 294 295 295 291 289 294 285 281 284 287 290 295 298 298 298 298 299 300 301 302 302 303 304 304 307 308 309 311 315 319 324 327 328 329 329 328 329 330 329 330 330
294 283 290 290 293 295 293 295 286 287 281 279 285 285 288 294 295 297 297 298 300 302 302 303 302 304 305 307 308 310 311 312 317 319 322 322 324 325 325 325 325 326 325 322
295 288 285 289 288 289 289 288 290 290 288 284 281 286 294 293 294 294 296 297 298 300 301 302 303 305 306 308 310 311 312 313 313 314 314 315 318 321 323 323 324 323 320 319
295 290 282 285 290 291 293 291 290 285 283 285 283 286 293 294 294 294 296 297 297 299 300 302 303 305 306 308 309 310 311 311 312 313 313 313 313 311 311 318 319 318 316 317
293 288 282 283 287 289 288 291 292 292 290 284 283 286 293 293 293 296 296 298 297 299 300 301 303 303 304 306 308 309 310 310 310 312 311 312 310 310 310 312 313 312 313 310
296 290 287 282 285 289 285 289 291 290 286 286 286 290 292 293 294 295 297 297 297 299 300 301 302 303 305 306 306 307 308 310 309 310 310 308 309 309 309 309 307 307 306 304
295 287 288 288 291 290 287 288 288 287 290 286 289 289 293 296 295 296 297 297 296 297 298 301 302 303 304 304 304 305 307 308 308 307 307 307 305 304 305 302 300 298 298 298
294 287 287 283 287 289 286 288 288 289 290 291 291 291 295 298 297 296 296 296 296 297 298 300 301 301 302 302 303 303 304 306 306 304 305 306 304 297 295 294 292 292 292 293
291 288 287 283 286 286 284 287 288 289 291 291 287 292 296 294 294 295 297 297 297 297 298 298 299 300 301 302 303 302 303 304 303 301 301 299 296 293 293 292 291 291 291 291
289 288 287 282 285 277 288 294 293 290 292 293 293 294 296 296 297 299 301 298 297 296 297 298 299 299 301 303 303 303 302 301 298 297 297 295 293 291 290 289 289 288 289 289
293 288 282 280 280 286 288 289 290 288 289 294 293 294 295 296 295 296 298 299 298 297 297 298 299 299 299 300 301 299 296 297 295 295 294 291 291 289 288 287 287 288 288 287
291 292 287 283 281 278 287 292 294 293 284 295 295 294 295 295 289 294 299 295 296 296 295 295 295 296 296 296 295 294 293 294 294 293 293 291 290 289 288 288 287 286 287 286
285 286 285 285 283 288 289 290 294 283 286 292 295 295 295 292 296 295 295 294 293 292 292 292 293 291 290 290 291 291 292 291 292 290 289 289 289 288 289 287 286 286 286 285
285 284 284 285 283 281 290 289 288 293 292 292 293 294 294 295 293 293 293 292 292 290 288 287 288 287 287 288 289 289 289 288 288 287 287 286 287 287 287 287 285 285 286 285
285 289 287 288 288 292 291 292 294 296 294 293 294 293 294 293 292 293 292 290 288 286 285 285 286 286 285 285 285 287 285 285 285 284 285 285 286 286 286 286 285 285 285 286
290 292 291 290 290 291 291 292 293 294 293 293 294 293 294 291 289 287 287 286 285 284 283 284 285 284 282 282 282 282 283 283 284 284 284 284 285 285 285 286 286 286 285 285
290 290 288 287 287 290 291 292 292 290 290 288 287 289 291 289 287 286 284 283 284 283 282 282 282 282 280 281 280 280 280 282 284 284 282 283 284 284 284 284 285 285 286 287
280 281 288 289 291 292 291 291 291 289 288 288 286 284 284 287 285 283 281 281 281 280 280 280 279 279 279 279 279 278 279 280 281 282 281 282 282 282 282 283 283 286 287 287
Wind_Speed
11 8 19 27 23 14 17 17 14 14 10 11 19 18 20 14 12 13 13 14 15 16 14 16 17 17 18 18 18 18 17 17 12 10 9 9 9 8 8 8 12 12 10 11
9 14 19 21 22 17 18 17 14 3 7 8 14 19 18 19 15 13 16 16 15 15 15 17 19 18 18 20 19 19 19 18 15 10 10 8 9 10 9 8 10 11 12 11
11 13 20 21 20 17 16 16 15 12 9 10 6 17 19 20 19 15 15 13 17 16 17 17 17 20 19 19 19 18 18 17 16 15 10 9 8 8 8 9 8 10 11 11
12 19 20 17 20 19 16 12 8 9 9 8 8 8 12 24 21 19 20 18 17 16 13 15 17 18 19 18 16 17 16 17 15 17 13 15 11 9 9 9 8 9 12 12
7 11 22 20 23 17 6 12 10 7 8 8 9 7 5 9 15 23 21 20 20 20 18 17 16 19 17 15 16 15 16 16 15 15 15 12 14 10 9 9 11 11 10 12
4 10 10 11 16 15 15 13 9 5 5 8 14 12 8 13 16 16 19 23 21 20 18 16 15 12 13 12 13 14 16 16 16 15 17 17 16 14 10 10 8 7 8 7
3 4 5 10 16 9 15 17 6 6 8 7 2 10 15 6 10 14 14 17 19 18 17 15 14 11 11 13 14 14 16 16 16 16 16 17 16 15 14 11 9 9 8 8
15 9 16 15 15 12 18 18 6 8 6 6 1 9 6 11 14 14 9 8 6 3 6 7 9 10 12 13 14 15 15 15 15 15 15 14 14 9 9 10 8 8 8 8
17 7 18 19 7 17 18 18 0 5 2 2 8 9 8 17 10 8 9 9 12 12 9 9 7 7 8 9 11 12 12 11 12 13 11 12 11 13 10 11 11 8 8 5
11 9 12 5 4 11 13 13 9 6 7 6 3 4 9 2 5 4 5 9 10 10 11 9 7 5 4 6 8 9 10 11 10 11 11 10 11 11 8 6 7 6 3 5
14 7 8 7 14 20 9 13 7 7 4 3 2 3 1 2 3 5 5 5 4 5 5 5 5 4 6 6 8 9 9 9 9 9 9 9 8 10 7 7 7 6 6 7
8 8 10 20 5 4 14 15 15 7 6 1 2 4 4 3 1 3 4 3 1 2 3 4 5 5 5 6 7 8 8 9 8 8 8 8 8 8 8 9 6 6 7 8
10 7 10 7 5 4 15 16 21 7 3 8 7 4 2 3 5 3 2 3 2 4 5 5 5 6 6 7 7 7 7 7 7 7 7 7 6 7 8 7 5 8 9 6
7 5 7 13 9 11 14 18 15 15 9 7 15 5 4 4 2 2 1 4 3 2 4 4 5 6 6 6 6 6 6 7 7 7 7 8 8 7 7 5 7 7 6 7
5 6 3 3 4 10 17 15 12 19 18 15 13 18 14 7 5 4 5 3 3 2 3 5 5 6 7 7 7 7 7 7 6 6 7 7 4 3 5 6 5 6 6 5
5 6 5 4 4 6 12 14 18 26 21 26 13 11 2 11 5 7 3 3 4 4 5 5 5 4 4 5 7 8 8 8 8 9 9 7 7 5 4 4 5 5 6 6
16 6 3 5 3 6 1 24 21 20 24 23 22 13 6 4 6 7 7 5 6 8 7 7 5 6 6 8 9 9 9 7 8 9 8 5 5 5 5 4 5 6 6 6
19 8 4 5 6 6 7 16 18 23 22 24 20 10 11 11 14 8 2 5 6 8 5 2 3 5 6 6 6 6 6 7 7 9 9 5 6 5 5 4 4 4 4 5
11 7 6 6 6 6 14 8 22 16 20 18 20 19 9 3 2 8 8 10 4 3 2 1 2 3 4 1 3 5 6 6 7 8 8 6 6 5 5 4 4 3 5 4
3 4 5 6 8 15 3 19 11 8 22 15 15 11 12 10 10 11 4 4 6 6 5 4 3 3 3 4 1 4 5 6 8 7 7 7 6 6 7 6 5 1 1 3
12 6 13 8 9 5 5 10 17 14 4 3 16 17 15 11 6 4 4 7 7 6 8 9 7 6 6 6 4 2 2 3 3 2 5 7 8 8 7 7 5 4 3 3
16 15 11 9 12 21 4 7 14 5 2 5 5 5 6 6 6 6 7 7 7 8 8 8 6 6 7 7 5 5 5 5 4 1 1 4 5 4 5 7 6 7 6 6
10 9 9 13 9 2 11 3 3 2 6 4 6 4 9 9 5 7 8 8 9 8 6 6 6 6 7 7 7 5 5 5 4 3 2 2 3 3 4 6 7 6 7 7
2 4 3 4 4 6 10 3 4 5 8 8 8 7 8 12 8 8 7 6 7 6 6 5 6 8 8 7 7 6 5 5 3 3 3 3 2 3 3 3 4 5 6 7
1 10 7 2 3 5 2 4 9 11 12 13 11 9 9 12 9 7 6 7 7 6 5 5 6 6 7 6 7 6 7 6 5 4 4 3 2 1 2 4 4 5 6 7
6 4 5 2 4 1 5 9 11 13 11 10 12 12 12 8 9 8 8 7 7 7 6 6 6 6 6 6 7 8 7 6 5 4 4 3 2 1 2 2 3 8 8 9
Wind_Direction
242 170 195 180 197 200 190 203 200 210 151 200 227 236 236 224 215 220 223 210 213 214 201 193 198 197 198 199 201 202 197 198 193 193 192 203 202 214 209 217 213 201 202 201
245 209 190 177 188 203 199 200 210 165 162 223 241 242 239 240 211 218 218 216 218 212 200 199 195 195 197 201 204 203 202 198 195 192 193 194 202 214 213 209 209 211 203 204
215 206 178 177 184 184 192 198 209 220 175 232 281 262 245 237 240 226 226 227 219 217 209 201 197 198 200 206 201 204 205 200 199 199 192 196 203 209 206 211 209 215 210 204
253 197 168 171 178 184 189 211 209 159 192 232 205 276 221 217 217 220 227 219 221 220 216 209 200 207 207 209 210 206 206 206 204 197 198 202 208 198 207 209 209 204 214 206
207 240 162 176 183 190 165 164 171 186 221 290 198 252 246 219 219 214 218 220 219 222 213 212 205 200 210 201 204 206 206 206 205 202 204 202 211 215 210 212 207 208 205 212
296 289 189 169 168 183 129 135 134 166 220 246 230 217 254 223 220 237 229 220 221 218 218 212 205 201 204 204 197 198 205 208 204 202 207 213 208 215 209 207 205 206 203 202
250 189 170 176 129 150 170 167 160 202 208 238 48 227 248 244 257 240 251 235 222 223 225 217 198 192 197 196 197 201 204 208 200 204 211 214 216 215 218 207 199 201 209 204
162 190 205 191 191 166 191 191 179 190 197 198 80 228 239 252 258 249 248 252 298 301 251 244 218 208 203 204 199 201 205 205 204 199 208 213 216 222 217 213 201 212 215 211
188 130 160 172 191 153 194 216 159 106 28 206 198 242 253 264 238 222 239 222 231 239 223 212 196 209 220 205 207 204 202 205 204 199 204 213 214 214 217 219 219 217 220 201
178 112 185 150 158 193 211 157 184 223 182 214 185 259 254 196 265 223 222 224 233 228 222 209 193 197 200 211 201 196 198 202 199 204 203 210 217 220 219 210 213 204 181 147
155 108 159 165 206 183 172 188 209 190 211 209 173 202 28 348 19 333 332 330 297 248 213 210 200 180 173 175 184 185 180 181 180 188 194 197 209 215 209 207 207 202 153 175
142 110 161 198 77 324 200 196 196 189 177 189 71 273 129 142 16 319 317 357 58 75 140 162 165 162 165 177 181 182 184 176 183 182 184 196 201 202 212 217 201 147 186 195
163 143 115 155 268 202 209 205 205 216 119 195 171 196 136 171 263 269 285 16 83 104 129 137 154 178 183 192 196 194 185 178 186 192 184 193 200 200 205 201 192 191 193 157
107 151 174 191 190 136 196 193 205 209 218 145 218 182 161 152 188 204 90 59 89 132 152 160 179 193 195 195 195 201 204 202 190 203 196 210 201 196 192 174 188 180 157 150
133 120 134 12 134 151 178 188 179 207 220 209 226 218 231 225 182 144 94 82 87 100 188 196 203 201 198 196 196 205 207 199 189 210 223 219 202 189 189 166 150 137 130 132
180 156 132 57 53 128 172 178 187 210 211 232 229 236 18 241 186 216 199 216 189 178 220 225 226 229 222 212 214 202 208 197 182 207 209 208 189 168 175 143 136 129 126 128
179 126 112 106 54 90 254 202 199 212 215 223 227 227 184 219 259 258 258 222 209 198 223 233 218 218 214 212 205 208 199 186 189 204 214 183 165 184 182 161 153 158 160 145
173 122 48 112 64 189 265 189 211 219 220 224 237 226 228 208 232 265 236 204 208 232 271 237 215 243 220 204 197 209 183 183 182 204 213 172 164 171 164 154 161 135 147 170
152 113 118 136 183 287 245 229 201 197 233 218 222 225 204 169 39 258 248 239 248 108 117 117 355 311 326 237 203 178 172 177 184 200 202 165 164 154 146 178 174 184 156 164
271 164 138 171 176 219 318 176 152 103 264 206 208 200 203 190 232 235 278 43 58 62 54 39 11 18 7 22 112 186 203 198 210 186 180 158 161 171 181 169 177 150 196 144
175 193 206 171 228 257 166 147 140 189 292 97 186 200 194 201 215 96 92 67 57 43 28 11 28 31 15 358 357 314 316 290 338 155 152 162 170 173 167 153 140 141 152 131
170 169 201 194 222 243 152 115 180 168 50 119 116 139 159 129 106 104 80 67 52 49 33 28 32 27 17 12 22 31 27 356 1 56 126 150 148 147 151 158 144 149 160 166
197 199 177 192 184 176 167 105 128 57 126 130 110 112 128 116 112 101 86 68 56 41 29 21 38 35 26 20 26 36 18 5 23 43 56 77 112 128 158 169 168 161 173 183
241 180 183 107 147 154 173 77 73 66 91 78 80 93 116 115 99 93 86 70 68 49 37 10 31 41 32 14 24 25 8 0 25 72 70 70 110 130 164 187 181 182 186 193
113 153 162 123 71 88 94 120 118 92 87 87 64 49 91 106 102 113 101 84 75 57 35 35 41 42 30 14 28 19 12 357 10 32 43 27 34 213 224 225 207 208 213 210
348 6 199 167 152 72 108 120 126 106 104 101 104 79 51 73 102 102 82 72 65 60 45 48 42 48 33 23 32 18 15 3 9 27 36 29 6 314 283 264 258 242 252 233